SCP
0 1 0 0 0 0 0 0 1 1 1 1 1 1 0 0 0 0 0 0 0 0
0 0 0 0 0 0 0 1 1 1 1 1 1 1 0 0 0 0 0 0 0 0
0 0 0 0 0 0 0 1 1 1 1 1 1 1 0 0 0 0 0 0 0 0
0 0 0 0 0 0 1 1 1 1 1 1 1 1 0 0 0 0 0 0 0 0
0 0 0 0 0 0 1 1 1 1 1 1 1 0 0 0 0 0 0 0 0 0
0 0 0 0 1 1 1 1 1 1 1 1 1 0 0 0 0 0 0 0 0 0
0 1 1 1 1 1 1 1 1 1 1 1 0 0 0 0 0 0 0 0 0 0
1 1 2 1 1 1 2 2 1 1 1 1 0 0 0 0 0 0 0 0 0 0
2 2 1 1 1 1 2 1 1 1 0 0 0 0 0 0 0 0 0 0 0 0
2 2 2 2 2 1 1 0 0 0 0 0 0 0 0 0 0 0 0 0 0 0
2 2 1 1 1 0 0 0 0 0 0 0 0 0 0 0 0 0 0 0 0 0
2 2 1 0 0 0 0 0 0 0 0 0 0 0 0 0 0 0 0 0 0 0
1 1 0 0 0 0 0 0 0 0 0 0 0 0 0 0 0 0 0 0 0 0
0 0 0 0 0 0 0 0 0 0 0 0 0 0 0 0 0 0 0 0 0 0
Wind_Speed_500mb
80 86 87 80 88 81 74 61 58 60 52 46 37 39 39 35 32 36 36 36 32 31
60 64 75 69 66 62 60 62 64 54 45 37 35 37 38 30 31 32 31 29 32 29
62 56 52 56 59 61 65 68 63 52 42 38 38 39 30 25 30 30 30 31 29 23
60 64 65 65 65 67 71 66 56 50 44 41 43 38 31 29 35 34 34 33 32 29
58 63 69 73 73 69 62 55 52 46 44 44 44 39 32 35 35 34 36 34 30 28
62 59 59 57 61 64 57 48 49 45 46 46 42 36 37 36 33 27 25 26 27 28
57 64 57 55 54 57 54 54 49 49 45 44 39 43 42 33 19 20 24 24 26 28
57 52 48 51 52 55 53 49 47 47 44 43 45 46 37 26 25 19 18 20 24 29
50 52 51 52 56 55 51 49 48 47 53 50 49 35 26 23 21 16 16 19 26 31
55 57 58 60 57 54 54 50 56 56 55 51 40 33 29 22 19 18 22 24 23 24
54 54 55 55 57 57 61 63 66 53 49 39 36 31 24 21 20 22 20 16 15 19
57 57 60 65 69 68 69 68 62 52 41 38 34 24 23 21 18 16 13 12 15 18
48 56 65 72 72 76 68 64 54 45 44 35 23 24 19 16 15 14 14 20 21 19
55 60 69 76 75 72 69 57 50 49 34 28 22 20 19 17 17 13 18 22 22 20
Wind_Direction_500mb
239 246 249 256 251 247 243 241 248 251 254 264 247 232 232 228 242 238 236 227 234 236
232 246 250 255 251 245 235 235 245 245 253 244 226 223 221 233 240 226 224 229 226 225
233 231 247 251 244 234 229 236 243 240 242 227 220 216 221 223 213 216 220 216 217 226
238 234 238 243 246 235 235 240 238 233 228 220 217 215 221 218 216 220 211 213 218 220
241 232 236 238 243 239 237 240 226 226 221 217 216 217 209 210 209 211 212 214 217 226
236 229 234 235 237 237 237 225 216 217 214 214 215 204 202 203 201 206 214 223 230 233
225 235 228 226 230 227 220 208 210 209 209 211 201 196 195 181 193 215 215 222 223 223
216 217 217 216 218 207 199 200 206 201 200 187 186 181 178 185 195 200 213 220 226 232
205 204 206 202 191 189 195 196 192 186 175 180 173 171 175 182 199 217 233 246 246 243
198 191 187 184 186 187 184 183 174 173 168 171 172 177 180 198 221 243 260 262 249 237
177 178 184 186 180 178 173 171 161 162 164 169 174 175 188 211 237 254 248 234 216 205
177 185 183 178 173 172 166 161 161 161 167 172 170 179 207 225 238 221 203 189 182 171
185 187 183 179 170 158 161 161 162 161 167 173 182 195 210 207 192 181 179 173 165 162
186 185 183 168 157 157 162 161 164 165 168 174 186 195 188 169 162 160 163 163 167 159
Wind_Speed_850mb
80 86 87 80 88 81 74 61 58 60 52 46 37 39 39 35 32 36 36 36 32 31
60 64 75 69 66 62 60 62 64 54 45 37 35 37 38 30 31 32 31 29 32 29
62 56 52 56 59 61 65 68 63 52 42 38 38 39 30 25 30 30 30 31 29 23
60 64 65 65 65 67 71 66 56 50 44 41 43 38 31 29 35 34 34 33 32 29
58 63 69 73 73 69 62 55 52 46 44 44 44 39 32 35 35 34 36 34 30 28
62 59 59 57 61 64 57 48 49 45 46 46 42 36 37 36 33 27 25 26 27 28
57 64 57 55 54 57 54 54 49 49 45 44 39 43 42 33 19 20 24 24 26 28
57 52 48 51 52 55 53 49 47 47 44 43 45 46 37 26 25 19 18 20 24 29
50 52 51 52 56 55 51 49 48 47 53 50 49 35 26 23 21 16 16 19 26 31
55 57 58 60 57 54 54 50 56 56 55 51 40 33 29 22 19 18 22 24 23 24
54 54 55 55 57 57 61 63 66 53 49 39 36 31 24 21 20 22 20 16 15 19
57 57 60 65 69 68 69 68 62 52 41 38 34 24 23 21 18 16 13 12 15 18
48 56 65 72 72 76 68 64 54 45 44 35 23 24 19 16 15 14 14 20 21 19
55 60 69 76 75 72 69 57 50 49 34 28 22 20 19 17 17 13 18 22 22 20
Wind_Direction_850mb
239 246 249 256 251 247 243 241 248 251 254 264 247 232 232 228 242 238 236 227 234 236
232 246 250 255 251 245 235 235 245 245 253 244 226 223 221 233 240 226 224 229 226 225
233 231 247 251 244 234 229 236 243 240 242 227 220 216 221 223 213 216 220 216 217 226
238 234 238 243 246 235 235 240 238 233 228 220 217 215 221 218 216 220 211 213 218 220
241 232 236 238 243 239 237 240 226 226 221 217 216 217 209 210 209 211 212 214 217 226
236 229 234 235 237 237 237 225 216 217 214 214 215 204 202 203 201 206 214 223 230 233
225 235 228 226 230 227 220 208 210 209 209 211 201 196 195 181 193 215 215 222 223 223
216 217 217 216 218 207 199 200 206 201 200 187 186 181 178 185 195 200 213 220 226 232
205 204 206 202 191 189 195 196 192 186 175 180 173 171 175 182 199 217 233 246 246 243
198 191 187 184 186 187 184 183 174 173 168 171 172 177 180 198 221 243 260 262 249 237
177 178 184 186 180 178 173 171 161 162 164 169 174 175 188 211 237 254 248 234 216 205
177 185 183 178 173 172 166 161 161 161 167 172 170 179 207 225 238 221 203 189 182 171
185 187 183 179 170 158 161 161 162 161 167 173 182 195 210 207 192 181 179 173 165 162
186 185 183 168 157 157 162 161 164 165 168 174 186 195 188 169 162 160 163 163 167 159